Location: Corralito
(14.1667°N, 87.1833°W)
Time: 22:02:19
(UTC+00:00)

Nadezhda 4 Rocket - Visible Passes

Search period start: 01 October 2020 00:00
Search period end: 11 October 2020 00:00
Orbit: 949 x 993 km, 82.9° (Epoch: 01 October)

Date Brightness Start Highest point End Pass type
(mag) Time Alt. Az. Time Alt. Az. Time Alt. Az.
01 Oct 6.0 01:34:44 10° NW 01:39:42 26° W 01:44:43 10° SW visible
02 Oct 4.1 00:12:45 10° N 00:18:45 54° E 00:24:47 10° SSE visible
02 Oct 6.9 02:01:32 10° WNW 02:03:30 12° W 02:05:28 10° WSW visible
03 Oct 4.2 00:36:36 10° N 00:42:43 74° W 00:48:54 10° S visible
04 Oct 5.6 01:01:07 10° NNW 01:06:37 35° W 01:12:12 10° SSW visible
05 Oct 6.7 01:26:46 10° NW 01:30:28 17° W 01:34:12 10° SW visible
05 Oct 7.3 11:10:52 10° ESE 11:13:50 14° E 11:16:46 10° ENE visible
06 Oct 4.0 00:03:26 10° N 00:09:37 84° E 00:15:51 10° S visible
07 Oct 5.1 00:27:40 10° NNW 00:33:32 47° W 00:39:29 10° SSW visible
08 Oct 6.4 00:52:45 10° NW 00:57:25 23° W 01:02:08 10° SW visible
09 Oct 6.8 11:00:00 10° SE 11:04:35 22° E 11:09:09 10° NE visible
09 Oct 4.6 23:54:21 10° NNW 00:00:28 64° W 00:06:39 10° S visible
